Weather History for Kaiser, MO

Change the Weather History Date:

Thursday, April 18, 2013

  Actual Average Record
Temperature  
Mean Temperature 56 °F -  
Max Temperature 73 °F 65 °F 89 °F (2006)
Min Temperature 39 °F 45 °F 28 °F (2001)
Degree Days  
Heating Degree Days 9    
Growing Degree Days 6 (Base 50)    
Moisture  
Dew Point 46 °F    
Average Humidity 79    
Maximum Humidity 94    
Minimum Humidity 61    
Precipitation  
Precipitation 1.52 in - - ()
Sea Level Pressure  
Sea Level Pressure 29.72 in    
Wind  
Wind Speed 11 mph (WSW)    
Max Wind Speed 21 mph    
Max Gust Speed 37 mph    
Visibility 9 miles    
Events Thunderstorm    
Averages and records for this station are not official NWS values.
T = Trace of Precipitation, MM = Missing Value Source: NWS Daily Summary

Daily Weather History Graph

Daily Weather History Graph

Search for Another Location

Airport:

Trip Planner

Search our weather history database for the weather conditions in past years. The results will help you decide how hot, cold, wet, or windy it might be!

Date:

Astronomy

Apr. 18, 2013 Rise Set
Actual Time 6:30 AM CDT 7:49 PM CDT
Civil Twilight 6:02 AM CDT 8:16 PM CDT
Nautical Twilight 5:29 AM CDT 8:49 PM CDT
Astronomical Twilight 4:55 AM CDT 9:24 PM CDT
Moon 12:43 PM CDT (4/18) 2:03 AM CDT (4/18)
Length of Visible Light 14h 14m
Length of Day
13h 19m
First Quarter, 52% of the Moon is Illuminated
Apr 18
First Quarter
Apr 25
Full
May 2
Last Quarter
May 9
New
May 17
First Quarter

Hourly Weather History & Observations

Time (CDT) Temp. Windchill Dew Point Humidity Pressure Visibility Wind Dir Wind Speed Gust Speed Precip Events Conditions
12:15 AM 73.4 °F - 62.6 °F 69% 29.66 in 10.0 mi South 11.5 mph 17.3 mph N/A   Scattered Clouds
12:35 AM 73.4 °F - 64.4 °F 73% 29.67 in 10.0 mi South 13.8 mph 20.7 mph N/A   Mostly Cloudy
12:55 AM 73.4 °F - 64.4 °F 73% 29.66 in 10.0 mi South 13.8 mph 18.4 mph N/A   Mostly Cloudy
1:15 AM 73.4 °F - 64.4 °F 73% 29.65 in 10.0 mi South 12.7 mph 21.9 mph N/A   Mostly Cloudy
1:35 AM 73.4 °F - 64.4 °F 73% 29.64 in 10.0 mi South 13.8 mph 21.9 mph N/A   Overcast
1:55 AM 73.4 °F - 64.4 °F 73% 29.61 in 9.0 mi South 13.8 mph 25.3 mph N/A   Overcast
2:15 AM 73.4 °F - 64.4 °F 73% 29.60 in 10.0 mi South 16.1 mph 24.2 mph N/A   Overcast
2:35 AM 73.4 °F - 64.4 °F 73% 29.60 in 10.0 mi SSW 12.7 mph 21.9 mph N/A   Overcast
2:55 AM 71.6 °F - 62.6 °F 73% 29.62 in 10.0 mi WNW 11.5 mph 25.3 mph N/A   Mostly Cloudy
3:15 AM 62.6 °F - 57.2 °F 82% 29.59 in 10.0 mi WNW 6.9 mph 23.0 mph 0.02 in Thunderstorm Overcast
3:35 AM 60.8 °F - 57.2 °F 88% 29.60 in 10.0 mi NW 8.1 mph - 0.14 in   Overcast
3:55 AM 60.8 °F - 57.2 °F 88% 29.59 in 9.0 mi NW 8.1 mph - 0.23 in Thunderstorm Thunderstorm
4:15 AM 60.8 °F - 57.2 °F 88% 29.63 in 5.0 mi West 6.9 mph - 0.23 in Thunderstorm Thunderstorm
4:35 AM 60.8 °F - 57.2 °F 88% 29.64 in 10.0 mi West 4.6 mph - 0.43 in Thunderstorm Thunderstorm
4:55 AM 60.8 °F - 57.2 °F 88% 29.64 in 8.0 mi West 3.5 mph - 0.49 in Thunderstorm Overcast
5:15 AM 60.8 °F - 59.0 °F 94% 29.66 in 10.0 mi SW 5.8 mph - 0.06 in   Overcast
5:35 AM 60.8 °F - 59.0 °F 94% 29.63 in 8.0 mi Calm Calm - 0.15 in   Mostly Cloudy
5:55 AM 60.8 °F - 59.0 °F 94% 29.62 in 6.0 mi SE 3.5 mph - 0.23 in Thunderstorm Overcast
6:15 AM 60.8 °F - 59.0 °F 94% 29.63 in 9.0 mi SSW 5.8 mph - 0.06 in Thunderstorm Overcast
6:35 AM 60.8 °F - 59.0 °F 94% 29.63 in 10.0 mi South 6.9 mph - 0.12 in Thunderstorm Overcast
6:55 AM 60.8 °F - 59.0 °F 94% 29.61 in 9.0 mi SE 5.8 mph - 0.19 in   Overcast
7:15 AM 60.8 °F - 59.0 °F 94% 29.60 in 9.0 mi SSE 5.8 mph - 0.04 in   Overcast
7:35 AM 60.8 °F - 59.0 °F 94% 29.60 in 8.0 mi South 6.9 mph - 0.06 in   Overcast
7:55 AM 60.8 °F - 59.0 °F 94% 29.63 in 9.0 mi South 8.1 mph - 0.10 in   Overcast
8:15 AM 60.8 °F - 59.0 °F 94% 29.62 in 5.0 mi South 11.5 mph 16.1 mph 0.11 in   Mostly Cloudy
8:35 AM 60.8 °F - 59.0 °F 94% 29.63 in 9.0 mi SSW 10.4 mph - 0.19 in   Overcast
8:55 AM 60.8 °F - 59.0 °F 94% 29.60 in 9.0 mi SSE 10.4 mph - 0.26 in   Mostly Cloudy
9:15 AM 62.6 °F - 60.8 °F 94% 29.57 in 10.0 mi South 9.2 mph - 0.01 in   Mostly Cloudy
9:35 AM 62.6 °F - 60.8 °F 94% 29.56 in 10.0 mi South 8.1 mph - 0.01 in   Overcast
9:55 AM 62.6 °F - 60.8 °F 94% 29.57 in 10.0 mi South 9.2 mph - 0.01 in   Mostly Cloudy
10:15 AM 64.4 °F - 60.8 °F 88% 29.58 in 10.0 mi South 9.2 mph 16.1 mph N/A   Overcast
10:35 AM 64.4 °F - 60.8 °F 88% 29.57 in 10.0 mi SSW 10.4 mph - N/A   Overcast
10:55 AM 55.4 °F - 51.8 °F 88% 29.63 in 2.0 mi West 16.1 mph 36.8 mph N/A   Overcast
11:15 AM 51.8 °F - 48.2 °F 88% 29.66 in 3.0 mi West 13.8 mph 20.7 mph N/A   Overcast
11:35 AM 48.2 °F - 44.6 °F 87% 29.69 in 10.0 mi West 16.1 mph 24.2 mph N/A   Overcast
11:55 AM 46.4 °F 39.8 °F 42.8 °F 87% 29.70 in 9.0 mi West 16.1 mph 27.6 mph N/A   Overcast
12:15 PM 46.4 °F 38.7 °F 42.8 °F 87% 29.72 in 10.0 mi West 20.7 mph 28.8 mph N/A   Overcast
12:35 PM 46.4 °F 39.2 °F 41.0 °F 81% 29.74 in 10.0 mi West 18.4 mph 25.3 mph N/A   Overcast
12:55 PM 44.6 °F 39.2 °F 39.2 °F 81% 29.70 in 8.0 mi West 10.4 mph 23.0 mph 0.01 in   Overcast
1:15 PM 44.6 °F 38.8 °F 39.2 °F 81% 29.74 in 10.0 mi West 11.5 mph 23.0 mph N/A   Overcast
1:35 PM 44.6 °F 38.4 °F 39.2 °F 81% 29.74 in 9.0 mi West 12.7 mph 20.7 mph N/A   Overcast
1:55 PM 44.6 °F 37.8 °F 37.4 °F 76% 29.75 in 10.0 mi West 15.0 mph 24.2 mph N/A   Overcast
2:15 PM 42.8 °F 35.4 °F 37.4 °F 81% 29.77 in 10.0 mi West 15.0 mph 21.9 mph N/A   Overcast
2:35 PM 42.8 °F 36.6 °F 37.4 °F 81% 29.76 in 10.0 mi West 11.5 mph 17.3 mph N/A   Overcast
2:55 PM 44.6 °F 39.2 °F 37.4 °F 76% 29.76 in 10.0 mi West 10.4 mph 20.7 mph N/A   Overcast
3:35 PM 42.8 °F 36.2 °F 35.6 °F 76% 29.77 in 10.0 mi West 12.7 mph 26.5 mph N/A   Overcast
3:55 PM 44.6 °F 38.8 °F 37.4 °F 76% 29.78 in 10.0 mi West 11.5 mph 18.4 mph N/A   Overcast
4:15 PM 44.6 °F 38.1 °F 35.6 °F 71% 29.78 in 10.0 mi West 13.8 mph 20.7 mph N/A   Overcast
4:35 PM 42.8 °F 35.8 °F 35.6 °F 76% 29.80 in 10.0 mi WNW 13.8 mph 21.9 mph N/A   Overcast
4:55 PM 42.8 °F 36.2 °F 33.8 °F 70% 29.81 in 10.0 mi WNW 12.7 mph 25.3 mph N/A   Overcast
5:15 PM 42.8 °F 36.2 °F 33.8 °F 70% 29.81 in 10.0 mi WNW 12.7 mph 26.5 mph N/A   Overcast
5:35 PM 42.8 °F 37.5 °F 33.8 °F 70% 29.82 in 10.0 mi WNW 9.2 mph 17.3 mph N/A   Overcast
5:55 PM 42.8 °F 35.8 °F 33.8 °F 70% 29.82 in 10.0 mi West 13.8 mph 23.0 mph N/A   Overcast
6:15 PM 42.8 °F 38.6 °F 32.0 °F 66% 29.84 in 10.0 mi West 6.9 mph - N/A   Overcast
6:35 PM 42.8 °F 36.6 °F 32.0 °F 66% 29.84 in 10.0 mi WNW 11.5 mph 23.0 mph N/A   Overcast
6:55 PM 42.8 °F 35.8 °F 30.2 °F 61% 29.85 in 10.0 mi West 13.8 mph 23.0 mph N/A   Overcast
7:15 PM 42.8 °F 38.0 °F 30.2 °F 61% 29.86 in 10.0 mi NW 8.1 mph 23.0 mph N/A   Overcast
7:35 PM 41.0 °F 36.4 °F 30.2 °F 65% 29.87 in 10.0 mi WNW 6.9 mph - N/A   Overcast
7:55 PM 41.0 °F 34.3 °F 30.2 °F 65% 29.86 in 10.0 mi WNW 11.5 mph 21.9 mph N/A   Overcast
8:15 PM 41.0 °F 33.9 °F 30.2 °F 65% 29.87 in 10.0 mi WNW 12.7 mph 21.9 mph N/A   Overcast
8:35 PM 41.0 °F 33.5 °F 30.2 °F 65% 29.88 in 10.0 mi WNW 13.8 mph 21.9 mph N/A   Overcast
8:55 PM 41.0 °F 34.3 °F 30.2 °F 65% 29.89 in 10.0 mi WNW 11.5 mph 24.2 mph N/A   Overcast
9:15 PM 39.2 °F 32.5 °F 28.4 °F 65% 29.89 in 10.0 mi NW 10.4 mph 18.4 mph N/A   Overcast
9:35 PM 39.2 °F 32.0 °F 28.4 °F 65% 29.90 in 10.0 mi NW 11.5 mph 21.9 mph N/A   Overcast
9:55 PM 39.2 °F 33.0 °F 28.4 °F 65% 29.91 in 10.0 mi WNW 9.2 mph 19.6 mph N/A   Overcast
10:35 PM 39.2 °F 33.0 °F 28.4 °F 65% 29.90 in 10.0 mi WNW 9.2 mph 19.6 mph N/A   Overcast
10:55 PM 39.2 °F 32.5 °F 28.4 °F 65% 29.90 in 10.0 mi WNW 10.4 mph 16.1 mph N/A   Overcast
11:15 PM 39.2 °F 31.6 °F 28.4 °F 65% 29.89 in 10.0 mi WNW 12.7 mph 23.0 mph N/A   Overcast
11:35 PM 39.2 °F 30.5 °F 28.4 °F 65% 29.89 in 10.0 mi West 16.1 mph 21.9 mph N/A   Overcast
11:55 PM 39.2 °F 31.6 °F 28.4 °F 65% 29.89 in 10.0 mi WNW 12.7 mph 23.0 mph N/A   Overcast